SKL3 NZQN-NZWB

Flight info

Callsign SKL3
Flight time N/A
Altitude 37000
Route TIMJO Y153 DOPKI Y109 ODOWD Y819 ELPIT DCT EXOTA
Aircraft A320/M-SDE3FGHIRWY/LB1

Departure

Time 2026-04-27 02:08
Airport Queenstown Airport (NZQN)

Arrival

Time N/A
Airport Woodbourne Airport (NZWB)
Time Latitude Longitude Altitude Speed Heading
2026-04-27 01:50 -45.02276 168.74147 1158 ft 0 kts 251°
2026-04-27 02:02 -45.02273 168.74161 1158 ft 2 kts 251°
2026-04-27 02:03 -45.02267 168.74183 1158 ft 2 kts 251°
2026-04-27 02:03 -45.02262 168.74204 1158 ft 0 kts 251°
2026-04-27 02:04 -45.02263 168.74203 1158 ft 0 kts 251°
2026-04-27 02:05 -45.02259 168.74194 1158 ft 5 kts 329°
2026-04-27 02:05 -45.02183 168.74191 1158 ft 15 kts 340°
2026-04-27 02:05 -45.02101 168.74094 1158 ft 17 kts 296°
2026-04-27 02:06 -45.02014 168.74014 1159 ft 17 kts 18°
2026-04-27 02:06 -45.01937 168.73975 1161 ft 16 kts 261°
2026-04-27 02:06 -45.01963 168.73800 1162 ft 21 kts 257°
2026-04-27 02:06 -45.01995 168.73600 1161 ft 18 kts 259°
2026-04-27 02:07 -45.02012 168.73509 1159 ft 2 kts 131°
2026-04-27 02:07 -45.02012 168.73516 1159 ft 1 kts 67°
2026-04-27 02:07 -45.01979 168.73703 1161 ft 59 kts 77°
2026-04-27 02:07 -45.01882 168.74321 1162 ft 134 kts 77°
2026-04-27 02:08 -45.01640 168.75932 1704 ft 181 kts 79°
2026-04-27 02:08 -45.01432 168.77763 2695 ft 196 kts 81°
2026-04-27 02:08 -45.01255 168.80652 4443 ft 240 kts 91°
2026-04-27 02:08 -45.01387 168.82283 5481 ft 255 kts 102°
2026-04-27 02:09 -45.01993 168.84695 6970 ft 269 kts 118°
2026-04-27 02:09 -45.02778 168.87112 8757 ft 277 kts 116°
2026-04-27 02:09 -45.03254 168.89844 10345 ft 291 kts 103°
2026-04-27 02:09 -45.03480 168.92703 11975 ft 300 kts 101°
2026-04-27 02:10 -45.03641 168.95745 13327 ft 315 kts 90°
2026-04-27 02:10 -45.02989 168.98737 14779 ft 327 kts 58°
2026-04-27 02:10 -45.01408 169.01078 16028 ft 330 kts 29°
2026-04-27 02:10 -44.99317 169.02324 17348 ft 325 kts
2026-04-27 02:11 -44.97101 169.02863 18616 ft 330 kts
2026-04-27 02:11 -44.94814 169.03379 19763 ft 335 kts
2026-04-27 02:11 -44.92498 169.04009 20897 ft 342 kts
2026-04-27 02:11 -44.90148 169.04683 22044 ft 347 kts
2026-04-27 02:12 -44.87758 169.05335 23166 ft 352 kts
2026-04-27 02:12 -44.85331 169.05977 24170 ft 357 kts
2026-04-27 02:12 -44.82856 169.06638 24953 ft 368 kts
2026-04-27 02:12 -44.80235 169.07333 24986 ft 399 kts
2026-04-27 02:13 -44.77454 169.08084 24993 ft 425 kts
2026-04-27 02:13 -44.74464 169.08894 24991 ft 447 kts
2026-04-27 02:13 -44.71364 169.09743 24997 ft 458 kts
2026-04-27 02:13 -44.68381 169.11290 24987 ft 455 kts 23°
2026-04-27 02:14 -44.65792 169.13796 24980 ft 452 kts 38°
2026-04-27 02:14 -44.63751 169.17098 25006 ft 447 kts 56°
2026-04-27 02:14 -44.62418 169.20933 25628 ft 423 kts 62°
2026-04-27 02:14 -44.61137 169.24500 26333 ft 399 kts 62°
2026-04-27 02:15 -44.60013 169.28066 26372 ft 399 kts 66°
2026-04-27 02:15 -44.58951 169.31624 26364 ft 400 kts 65°
2026-04-27 02:15 -44.57825 169.35151 26782 ft 386 kts 64°
2026-04-27 02:15 -44.56728 169.38487 27419 ft 371 kts 64°
2026-04-27 02:16 -44.55663 169.41788 27491 ft 373 kts 64°
2026-04-27 02:16 -44.54605 169.45118 27601 ft 373 kts 64°
2026-04-27 02:16 -44.53542 169.48438 27703 ft 374 kts 64°
2026-04-27 02:16 -44.52471 169.51759 27800 ft 375 kts 64°
2026-04-27 02:17 -44.51396 169.55088 27891 ft 375 kts 64°
2026-04-27 02:17 -44.50323 169.58416 28050 ft 374 kts 64°
2026-04-27 02:17 -44.48172 169.65077 28259 ft 375 kts 65°
2026-04-27 02:18 -44.46014 169.71699 28465 ft 375 kts 62°
2026-04-27 02:18 -44.43527 169.78135 28653 ft 376 kts 60°
2026-04-27 02:19 -44.41038 169.84601 28805 ft 377 kts 60°
2026-04-27 02:19 -44.38527 169.91079 28969 ft 378 kts 60°
2026-04-27 02:20 -44.36020 169.97543 29127 ft 379 kts 60°
2026-04-27 02:20 -44.33516 170.03980 29217 ft 381 kts 60°
2026-04-27 02:21 -44.30968 170.10513 29261 ft 387 kts 60°
2026-04-27 02:21 -44.29684 170.13805 30005 ft 392 kts 60°
2026-04-27 02:21 -44.28333 170.17256 30085 ft 415 kts 60°
2026-04-27 02:22 -44.26941 170.20808 30801 ft 415 kts 60°
2026-04-27 02:22 -44.25565 170.24327 31615 ft 412 kts 60°
2026-04-27 02:22 -44.24189 170.27827 32370 ft 411 kts 60°
2026-04-27 02:22 -44.22817 170.31322 33107 ft 409 kts 60°
2026-04-27 02:23 -44.21449 170.34798 33794 ft 408 kts 60°
2026-04-27 02:23 -44.20083 170.38262 34426 ft 407 kts 60°
2026-04-27 02:23 -44.18724 170.41713 35006 ft 405 kts 60°
2026-04-27 02:23 -44.17368 170.45145 35580 ft 404 kts 60°
2026-04-27 02:24 -44.16014 170.48568 36151 ft 402 kts 60°
2026-04-27 02:24 -44.14682 170.51933 36707 ft 401 kts 60°
2026-04-27 02:24 -44.13324 170.55356 36953 ft 409 kts 61°
2026-04-27 02:24 -44.11928 170.58878 36972 ft 422 kts 60°
2026-04-27 02:25 -44.10487 170.62503 36973 ft 433 kts 60°
2026-04-27 02:25 -44.09009 170.66219 36979 ft 443 kts 61°
2026-04-27 02:25 -44.05959 170.73868 36981 ft 460 kts 60°
2026-04-27 02:26 -44.02801 170.81770 36972 ft 473 kts 61°
2026-04-27 02:26 -43.99565 170.89840 36970 ft 480 kts 61°
2026-04-27 02:27 -43.96379 170.97766 36965 ft 460 kts 60°
2026-04-27 02:27 -43.93320 171.05355 36949 ft 445 kts 61°
2026-04-27 02:28 -43.90340 171.12726 36954 ft 432 kts 61°
2026-04-27 02:28 -43.87442 171.19876 36951 ft 424 kts 61°
2026-04-27 02:29 -43.84568 171.26954 36949 ft 417 kts 60°
2026-04-27 02:29 -43.81727 171.33929 36949 ft 413 kts 60°
2026-04-27 02:30 -43.78933 171.40774 36950 ft 409 kts 60°
2026-04-27 02:30 -43.76135 171.47613 36948 ft 407 kts 60°
2026-04-27 02:31 -43.73343 171.54419 36956 ft 405 kts 60°
2026-04-27 02:31 -43.72331 171.56880 36954 ft 405 kts 61°
2026-04-27 02:32 -43.69535 171.63481 36956 ft 403 kts 54°
2026-04-27 02:32 -43.65979 171.69548 36966 ft 417 kts 50°
2026-04-27 02:33 -43.62217 171.75868 36978 ft 433 kts 50°
2026-04-27 02:33 -43.58325 171.82379 36978 ft 446 kts 50°
2026-04-27 02:34 -43.54350 171.89021 36980 ft 455 kts 50°
2026-04-27 02:34 -43.50272 171.95813 36984 ft 462 kts 50°
2026-04-27 02:35 -43.46141 172.02681 36985 ft 468 kts 50°
2026-04-27 02:35 -43.41969 172.09601 36990 ft 471 kts 50°
2026-04-27 02:36 -43.38190 172.15852 36990 ft 474 kts 50°
2026-04-27 02:36 -43.33961 172.22836 36999 ft 475 kts 50°
2026-04-27 02:37 -43.29707 172.29842 37000 ft 477 kts 50°
2026-04-27 02:37 -43.25448 172.36836 37003 ft 478 kts 50°
2026-04-27 02:38 -43.21209 172.43786 37001 ft 478 kts 50°
2026-04-27 02:38 -43.16926 172.50788 37000 ft 479 kts 50°
2026-04-27 02:39 -43.12638 172.57787 36999 ft 478 kts 50°
2026-04-27 02:39 -43.08426 172.64639 36996 ft 461 kts 50°
2026-04-27 02:40 -43.04374 172.71219 36982 ft 449 kts 50°
2026-04-27 02:40 -43.00388 172.77676 36986 ft 442 kts 50°
2026-04-27 02:41 -42.96414 172.84100 36989 ft 443 kts 50°
2026-04-27 02:41 -42.92420 172.90543 36993 ft 444 kts 50°
2026-04-27 02:42 -42.88418 172.96982 36997 ft 445 kts 50°
2026-04-27 02:42 -42.84430 173.03387 37000 ft 446 kts 50°
2026-04-27 02:43 -42.80401 173.09842 37003 ft 447 kts 50°
2026-04-27 02:43 -42.76365 173.16292 37005 ft 447 kts 50°
2026-04-27 02:44 -42.72351 173.22701 37005 ft 447 kts 50°
2026-04-27 02:44 -42.70558 173.26134 37006 ft 446 kts 61°
2026-04-27 02:44 -42.69199 173.29925 37006 ft 444 kts 70°
2026-04-27 02:45 -42.67648 173.37981 37004 ft 439 kts 86°
2026-04-27 02:45 -42.67684 173.46206 37012 ft 432 kts 102°
2026-04-27 02:46 -42.69237 173.53961 37017 ft 423 kts 117°
2026-04-27 02:46 -42.72132 173.60830 37023 ft 414 kts 132°
2026-04-27 02:47 -42.76058 173.66340 37029 ft 391 kts 146°
2026-04-27 02:47 -42.78121 173.68345 36997 ft 337 kts 155°
2026-04-27 02:47 -42.80096 173.69590 36998 ft 291 kts 167°
2026-04-27 02:48 -42.81912 173.70103 37036 ft 234 kts 181°
2026-04-27 02:48 -42.83374 173.70091 36960 ft 207 kts 194°
2026-04-27 02:48 -42.84792 173.69476 37052 ft 223 kts 206°
2026-04-27 02:48 -42.86227 173.68482 37164 ft 240 kts 214°
2026-04-27 02:49 -42.87617 173.67059 37180 ft 260 kts 223°
2026-04-27 02:49 -42.88880 173.65160 37184 ft 281 kts 233°
2026-04-27 02:49 -42.89898 173.62782 37187 ft 301 kts 244°
2026-04-27 02:49 -42.90562 173.59972 37190 ft 321 kts 253°
2026-04-27 02:50 -42.91051 173.56913 37189 ft 338 kts 257°
2026-04-27 02:50 -42.91265 173.53636 37188 ft 355 kts 265°
2026-04-27 02:50 -42.91265 173.50182 37185 ft 368 kts 266°
2026-04-27 02:50 -42.91267 173.46684 37180 ft 379 kts 266°
2026-04-27 02:51 -42.91242 173.39295 37174 ft 397 kts 267°
2026-04-27 02:51 -42.91213 173.31617 37174 ft 410 kts 267°
2026-04-27 02:52 -42.91181 173.23795 37171 ft 420 kts 267°
2026-04-27 02:52 -42.91140 173.15741 37169 ft 427 kts 267°
2026-04-27 02:53 -42.91093 173.07577 37167 ft 432 kts 267°
2026-04-27 02:53 -42.91048 173.00731 37165 ft 436 kts 267°
2026-04-27 02:54 -42.90989 172.92423 37157 ft 439 kts 268°
2026-04-27 02:54 -42.90923 172.84062 37158 ft 441 kts 268°
2026-04-27 02:55 -42.90853 172.75722 37157 ft 443 kts 268°
2026-04-27 02:55 -42.90775 172.67308 37152 ft 444 kts 268°
2026-04-27 02:56 -42.90692 172.58864 37154 ft 445 kts 268°
2026-04-27 02:56 -42.90603 172.50410 37155 ft 445 kts 268°
2026-04-27 02:57 -42.90506 172.41996 37149 ft 445 kts 268°
2026-04-27 02:57 -42.90402 172.33534 37149 ft 446 kts 268°
2026-04-27 02:58 -42.90293 172.25067 37146 ft 446 kts 268°
2026-04-27 02:58 -42.90177 172.16580 37147 ft 447 kts 268°
2026-04-27 02:59 -42.90055 172.08155 37150 ft 447 kts 268°
2026-04-27 02:59 -42.89930 171.99681 37145 ft 446 kts 268°
2026-04-27 03:00 -42.89794 171.91209 37151 ft 446 kts 268°
2026-04-27 03:00 -42.89654 171.82742 37157 ft 446 kts 269°
2026-04-27 03:01 -42.89509 171.74332 37165 ft 445 kts 269°
2026-04-27 03:01 -42.89356 171.65881 37167 ft 445 kts 269°
2026-04-27 03:02 -42.89197 171.57439 37178 ft 445 kts 269°
2026-04-27 03:02 -42.89032 171.49005 37182 ft 445 kts 269°
2026-04-27 03:03 -42.88773 171.36325 37187 ft 445 kts 269°
2026-04-27 03:04 -42.88592 171.27949 37194 ft 445 kts 269°
2026-04-27 03:04 -42.88408 171.19507 37192 ft 445 kts 269°
2026-04-27 03:05 -42.88215 171.11077 37192 ft 444 kts 269°
2026-04-27 03:05 -42.88016 171.02665 37197 ft 444 kts 269°
2026-04-27 03:06 -42.87811 170.94260 37197 ft 443 kts 269°
2026-04-27 03:06 -42.87604 170.85914 37202 ft 443 kts 270°
2026-04-27 03:07 -42.87386 170.77532 37204 ft 442 kts 270°
2026-04-27 03:07 -42.87164 170.69137 37204 ft 442 kts 270°
2026-04-27 03:08 -42.86936 170.60770 37206 ft 441 kts 270°
2026-04-27 03:08 -42.86703 170.52408 37207 ft 441 kts 270°
2026-04-27 03:09 -42.86466 170.44112 37208 ft 440 kts 270°
2026-04-27 03:09 -42.86221 170.35765 37205 ft 440 kts 270°
2026-04-27 03:10 -42.85968 170.27408 37209 ft 440 kts 270°
2026-04-27 03:10 -42.85710 170.19085 37211 ft 440 kts 270°
2026-04-27 03:11 -42.85447 170.10757 37209 ft 439 kts 270°
2026-04-27 03:11 -42.85179 170.02472 37211 ft 439 kts 270°
2026-04-27 03:12 -42.84905 169.94154 37209 ft 439 kts 270°
2026-04-27 03:12 -42.84625 169.85835 37208 ft 439 kts 271°
2026-04-27 03:13 -42.84338 169.77516 37212 ft 439 kts 271°
2026-04-27 03:13 -42.84046 169.69246 37215 ft 439 kts 271°
2026-04-27 03:14 -42.83746 169.60921 37212 ft 439 kts 271°
2026-04-27 03:14 -42.83441 169.52611 37214 ft 439 kts 271°
2026-04-27 03:15 -42.83132 169.44354 37217 ft 439 kts 271°
2026-04-27 03:15 -42.82816 169.36038 37217 ft 439 kts 271°
2026-04-27 03:16 -42.82494 169.27740 37219 ft 438 kts 271°
2026-04-27 03:16 -42.82166 169.19452 37221 ft 438 kts 271°
2026-04-27 03:17 -42.81831 169.11157 37215 ft 438 kts 272°
2026-04-27 03:17 -42.81490 169.02868 37219 ft 438 kts 272°
2026-04-27 03:18 -42.81146 168.94640 37221 ft 438 kts 272°
2026-04-27 03:18 -42.80795 168.86352 37224 ft 438 kts 272°
2026-04-27 03:19 -42.80438 168.78063 37224 ft 438 kts 272°
2026-04-27 03:19 -42.80075 168.69797 37228 ft 437 kts 272°
2026-04-27 03:20 -42.79705 168.61526 37223 ft 437 kts 272°
2026-04-27 03:20 -42.79332 168.53307 37223 ft 437 kts 272°
2026-04-27 03:21 -42.78950 168.45047 37225 ft 437 kts 272°
2026-04-27 03:21 -42.78563 168.36785 37226 ft 437 kts 272°
2026-04-27 03:22 -42.78172 168.28531 37226 ft 437 kts 272°
2026-04-27 03:22 -42.77774 168.20284 37226 ft 437 kts 272°
2026-04-27 03:23 -42.77370 168.12027 37231 ft 437 kts 272°
2026-04-27 03:23 -42.76959 168.03774 37228 ft 437 kts 273°
2026-04-27 03:24 -42.76545 167.95578 37228 ft 437 kts 273°
2026-04-27 03:24 -42.76123 167.87333 37230 ft 437 kts 273°
2026-04-27 03:25 -42.75695 167.79088 37227 ft 437 kts 273°
2026-04-27 03:25 -42.75262 167.70844 37233 ft 437 kts 273°
2026-04-27 03:26 -42.74825 167.62642 37229 ft 436 kts 273°
2026-04-27 03:26 -42.74380 167.54400 37231 ft 437 kts 273°
2026-04-27 03:27 -42.73928 167.46153 37232 ft 436 kts 273°
2026-04-27 03:27 -42.73469 167.37898 37234 ft 436 kts 273°
2026-04-27 03:28 -42.73007 167.29711 37232 ft 436 kts 273°
2026-04-27 03:28 -42.72539 167.21479 37236 ft 436 kts 273°
2026-04-27 03:29 -42.72064 167.13243 37233 ft 436 kts 273°
2026-04-27 03:29 -42.71585 167.05016 37236 ft 436 kts 274°
2026-04-27 03:30 -42.71101 166.96838 37232 ft 436 kts 274°
2026-04-27 03:30 -42.70609 166.88621 37231 ft 436 kts 274°
2026-04-27 03:31 -42.70110 166.80401 37236 ft 436 kts 274°
2026-04-27 03:31 -42.69606 166.72184 37239 ft 436 kts 274°
2026-04-27 03:32 -42.69097 166.63973 37237 ft 435 kts 274°
2026-04-27 03:32 -42.68586 166.55824 37239 ft 435 kts 274°
2026-04-27 03:33 -42.68066 166.47618 37236 ft 435 kts 274°
2026-04-27 03:33 -42.67540 166.39414 37236 ft 435 kts 274°
2026-04-27 03:34 -42.67008 166.31228 37237 ft 435 kts 274°
2026-04-27 03:34 -42.66473 166.23089 37235 ft 435 kts 274°
2026-04-27 03:35 -42.65929 166.14904 37236 ft 435 kts 274°
2026-04-27 03:35 -42.65380 166.06720 37237 ft 435 kts 274°
2026-04-27 03:36 -42.64826 165.98532 37235 ft 435 kts 274°
2026-04-27 03:36 -42.64267 165.90361 37235 ft 434 kts 274°
2026-04-27 03:37 -42.63701 165.82187 37238 ft 434 kts 275°
2026-04-27 03:37 -42.63129 165.74020 37239 ft 434 kts 275°
2026-04-27 03:38 -42.62550 165.65853 37239 ft 434 kts 275°
2026-04-27 03:38 -42.61967 165.57694 37239 ft 434 kts 275°
2026-04-27 03:39 -42.61382 165.49580 37236 ft 434 kts 275°
2026-04-27 03:39 -42.60787 165.41408 37238 ft 434 kts 275°
2026-04-27 03:40 -42.60188 165.33253 37239 ft 434 kts 275°
2026-04-27 03:40 -42.59582 165.25092 37237 ft 434 kts 275°
2026-04-27 03:41 -42.58969 165.16939 37241 ft 434 kts 275°
2026-04-27 03:41 -42.58354 165.08827 37242 ft 434 kts 275°
2026-04-27 03:42 -42.57717 165.00741 37236 ft 416 kts 276°
2026-04-27 03:42 -42.57510 164.98222 37236 ft 392 kts 275°
2026-04-27 03:42 -42.57268 164.94723 37234 ft 355 kts 275°
2026-04-27 03:42 -42.56957 164.90552 37233 ft 315 kts 275°
2026-04-27 03:43 -42.56797 164.88599 37233 ft 299 kts 275°
2026-04-27 03:43 -42.56585 164.85938 37236 ft 277 kts 275°
2026-04-27 03:43 -42.56389 164.83431 37234 ft 257 kts 275°
2026-04-27 03:43 -42.56207 164.81102 37231 ft 240 kts 275°
2026-04-27 03:44 -42.56038 164.78930 37231 ft 224 kts 275°
2026-04-27 03:44 -42.55876 164.76896 37229 ft 210 kts 275°
2026-04-27 03:44 -42.55725 164.74993 37229 ft 196 kts 275°
2026-04-27 03:44 -42.55586 164.73209 37228 ft 184 kts 275°
2026-04-27 03:45 -42.55451 164.71537 37226 ft 172 kts 275°
2026-04-27 03:45 -42.55327 164.69972 37226 ft 161 kts 275°
2026-04-27 03:45 -42.55215 164.68528 37225 ft 150 kts 275°
2026-04-27 03:45 -42.55103 164.67166 37220 ft 140 kts 274°
2026-04-27 03:46 -42.55002 164.65911 37215 ft 128 kts 275°
2026-04-27 03:46 -42.54915 164.64759 37192 ft 118 kts 275°
2026-04-27 03:46 -42.54821 164.63639 36913 ft 124 kts 274°
2026-04-27 03:46 -42.54727 164.62462 36733 ft 123 kts 276°
2026-04-27 03:47 -42.54643 164.61335 36615 ft 119 kts 275°
2026-04-27 03:47 -42.54543 164.60181 36331 ft 126 kts 274°
2026-04-27 03:47 -42.54452 164.59024 36245 ft 120 kts 276°
2026-04-27 03:47 -42.54367 164.57898 36018 ft 123 kts 275°
2026-04-27 03:48 -42.54264 164.56740 35837 ft 124 kts 274°
2026-04-27 03:48 -42.54178 164.55609 35715 ft 120 kts 276°
2026-04-27 03:48 -42.54089 164.54455 35470 ft 125 kts 275°
2026-04-27 03:48 -42.53985 164.53300 35366 ft 121 kts 274°
2026-04-27 03:49 -42.53900 164.52162 35159 ft 123 kts 276°
2026-04-27 03:49 -42.53806 164.50992 34987 ft 124 kts 274°
2026-04-27 03:49 -42.53705 164.49852 34856 ft 121 kts 275°
2026-04-27 03:49 -42.53620 164.48694 34637 ft 125 kts 276°
2026-04-27 03:50 -42.53523 164.47531 34518 ft 122 kts 274°
2026-04-27 03:50 -42.53423 164.46387 34336 ft 124 kts 275°
2026-04-27 03:50 -42.53337 164.45216 34160 ft 124 kts 276°
2026-04-27 03:50 -42.53237 164.44065 34003 ft 122 kts 274°
2026-04-27 03:51 -42.53141 164.42926 33794 ft 124 kts 276°
2026-04-27 03:51 -42.53056 164.41773 33657 ft 121 kts 276°
2026-04-27 03:51 -42.52954 164.40634 33451 ft 123 kts 274°
2026-04-27 03:51 -42.52859 164.39479 33293 ft 122 kts 277°
2026-04-27 03:52 -42.52774 164.38347 33135 ft 121 kts 276°
2026-04-27 03:52 -42.52670 164.37203 32938 ft 122 kts 275°
2026-04-27 03:52 -42.52581 164.36073 32809 ft 119 kts 277°
2026-04-27 03:52 -42.52493 164.34941 32605 ft 122 kts 275°
2026-04-27 03:53 -42.52389 164.33825 32474 ft 119 kts 275°
2026-04-27 03:53 -42.52303 164.32693 32280 ft 121 kts 277°
2026-04-27 03:53 -42.52211 164.31565 32133 ft 119 kts 275°
2026-04-27 03:53 -42.52110 164.30458 31974 ft 119 kts 276°
2026-04-27 03:54 -42.52026 164.29333 31803 ft 120 kts 278°
2026-04-27 03:54 -42.51932 164.28229 31669 ft 117 kts 275°
2026-04-27 03:54 -42.51833 164.27135 31489 ft 119 kts 277°
2026-04-27 03:54 -42.51752 164.26022 31359 ft 117 kts 278°
2026-04-27 03:55 -42.51653 164.24922 31185 ft 118 kts 275°
2026-04-27 03:55 -42.51557 164.23814 31049 ft 117 kts 277°
2026-04-27 03:55 -42.51476 164.22717 30886 ft 117 kts 277°
2026-04-27 03:55 -42.51374 164.21619 30742 ft 117 kts 275°
2026-04-27 03:56 -42.51286 164.20547 30597 ft 116 kts 278°
2026-04-27 03:56 -42.51202 164.19453 30440 ft 117 kts 277°
2026-04-27 03:56 -42.51099 164.18370 30302 ft 115 kts 276°
2026-04-27 03:56 -42.51015 164.17285 30115 ft 116 kts 279°
2026-04-27 03:57 -42.50927 164.16205 29967 ft 114 kts 276°
2026-04-27 03:57 -42.50825 164.15135 29784 ft 115 kts 276°
2026-04-27 03:57 -42.50745 164.14063 29633 ft 113 kts 278°
2026-04-27 03:57 -42.50655 164.13003 29457 ft 114 kts 275°
2026-04-27 03:58 -42.50555 164.11945 29301 ft 113 kts 277°
2026-04-27 03:58 -42.50479 164.10903 29136 ft 112 kts 278°
2026-04-27 03:58 -42.50385 164.09854 28982 ft 112 kts 275°
2026-04-27 03:58 -42.50290 164.08814 28823 ft 111 kts 277°
2026-04-27 03:59 -42.50214 164.07750 28436 ft 124 kts 277°
2026-04-27 03:59 -42.50092 164.06428 27982 ft 141 kts 275°
2026-04-27 03:59 -42.49989 164.05211 28097 ft 123 kts 277°
2026-04-27 03:59 -42.49894 164.04024 27758 ft 133 kts 277°
2026-04-27 04:00 -42.49778 164.02783 27674 ft 126 kts 275°
2026-04-27 04:00 -42.49684 164.01642 27502 ft 126 kts 278°
2026-04-27 04:00 -42.49584 164.00413 27253 ft 131 kts 276°
2026-04-27 04:00 -42.49474 163.99248 27205 ft 122 kts 275°
2026-04-27 04:01 -42.49378 163.98060 26902 ft 130 kts 277°
2026-04-27 04:01 -42.49278 163.96877 26837 ft 121 kts 276°
2026-04-27 04:01 -42.49171 163.95732 26597 ft 126 kts 276°
2026-04-27 04:01 -42.49075 163.94539 26459 ft 124 kts 277°
2026-04-27 04:02 -42.48979 163.93405 26318 ft 122 kts 275°
2026-04-27 04:02 -42.48869 163.92232 26100 ft 126 kts 276°
2026-04-27 04:02 -42.48780 163.91103 26012 ft 120 kts 277°
2026-04-27 04:02 -42.48699 163.90238 25829 ft 124 kts 275°